FW9915 Weather Reports


time (UTC)temp
C
wind
direction
speed
KPH
gust
KPH
rain 1hr
cm
rain 24hr
cm
rain mn
cm
humidity
%
barometer
mb
20260506172524 10 194 1.6 6.4 0.00 0.00 0.00 95 1015.8
20260506171525 10 201 1.6 6.4 0.00 0.00 0.00 95 1015.8
20260506170545 10 185 3.2 6.4 0.00 0.00 0.00 94 1015.8
20260506165524 11 153 0.0 6.4 0.00 0.00 0.00 93 1015.8
20260506164524 11 187 3.2 6.4 0.00 0.00 0.00 92 1015.8
20260506163545 11 201 3.2 11.3 0.00 0.00 0.00 92 1015.8
20260506162524 11 241 1.6 6.4 0.00 0.00 0.00 91 1015.7
20260506161536 11 189 3.2 6.4 0.00 0.00 0.00 91 1015.9
20260506160536 11 193 3.2 11.3 0.00 0.00 0.00 90 1015.9
20260506155524 11 180 3.2 11.3 0.00 0.00 0.00 89 1015.9
20260506154525 11 204 3.2 6.4 0.00 0.00 0.00 89 1016.0
20260506153525 11 195 4.8 11.3 0.00 0.00 0.00 88 1016.0
20260506152549 12 194 4.8 11.3 0.00 0.00 0.00 88 1016.1
20260506151525 12 136 4.8 11.3 0.00 0.00 0.00 88 1016.2
20260506150524 12 178 4.8 11.3 0.00 0.00 0.00 87 1016.2
20260506145525 12 176 6.4 11.3 0.00 0.00 0.00 86 1016.2
20260506144524 13 193 6.4 11.3 0.00 0.00 0.00 83 1016.2
20260506143524 13 178 6.4 11.3 0.00 0.00 0.00 83 1016.2
20260506142549 12 139 4.8 11.3 0.00 0.00 0.00 82 1016.2
20260506141525 13 185 4.8 11.3 0.00 0.00 0.00 80 1016.2
20260506140536 13 190 8.0 17.7 0.00 0.00 0.00 80 1016.2
20260506135525 13 155 6.4 11.3 0.00 0.00 0.00 83 1016.2
20260506134536 13 204 6.4 14.5 0.00 0.00 0.00 80 1016.3
20260506133525 13 201 4.8 11.3 0.00 0.00 0.00 81 1016.3
20260506132524 14 191 6.4 11.3 0.00 0.00 0.00 76 1016.3
20260506131545 13 202 6.4 14.5 0.00 0.00 0.00 77 1016.3
20260506130525 12 145 8.0 14.5 0.00 0.00 0.00 80 1016.3
20260506125524 13 144 6.4 11.3 0.00 0.00 0.00 77 1016.4
20260506124608 13 197 6.4 11.3 0.00 0.00 0.00 78 1016.4
20260506123525 14 181 6.4 11.3 0.00 0.00 0.00 76 1016.5
20260506122525 13 156 11.3 24.1 0.00 0.00 0.00 77 1016.4
20260506121525 13 138 6.4 14.5 0.00 0.00 0.00 77 1016.6
20260506120524 14 202 9.7 24.1 0.00 0.00 0.00 74 1016.7
20260506115524 13 188 8.0 24.1 0.00 0.00 0.00 75 1016.7
20260506114525 13 141 9.7 24.1 0.00 0.00 0.00 78 1016.8
20260506113557 13 139 6.4 14.5 0.00 0.00 0.00 78 1016.8
20260506112524 13 175 6.4 11.3 0.00 0.00 0.00 76 1016.9
20260506111525 13 135 6.4 11.3 0.00 0.00 0.00 80 1016.9
20260506110524 13 214 6.4 11.3 0.00 0.00 0.00 80 1017.0
20260506105536 13 149 6.4 14.5 0.00 0.00 0.00 82 1017.1
20260506104524 13 190 8.0 14.5 0.00 0.00 0.00 82 1017.1
20260506103525 12 173 8.0 14.5 0.00 0.00 0.00 83 1017.1
20260506102548 13 190 8.0 17.7 0.00 0.00 0.00 82 1017.1
20260506101525 13 156 6.4 11.3 0.00 0.00 0.00 83 1017.0
20260506100537 13 157 8.0 14.5 0.00 0.00 0.00 83 1017.1
20260506095524 13 195 6.4 14.5 0.00 0.00 0.00 83 1017.2
20260506094545 12 162 6.4 14.5 0.00 0.00 0.00 85 1017.2
20260506093536 12 127 8.0 14.5 0.00 0.00 0.00 86 1017.2
20260506092544 13 157 6.4 14.5 0.00 0.00 0.00 85 1017.2
20260506091525 13 212 4.8 14.5 0.00 0.00 0.00 84 1017.1
20260506090524 13 189 4.8 14.5 0.00 0.00 0.00 84 1017.1
20260506085524 13 202 8.0 14.5 0.00 0.00 0.00 84 1017.1
20260506084525 13 177 8.0 14.5 0.00 0.00 0.00 85 1016.9
20260506083524 12 203 8.0 17.7 0.00 0.00 0.00 85 1016.9
20260506082545 13 181 6.4 14.5 0.00 0.00 0.00 85 1016.8
20260506081525 12 148 6.4 14.5 0.00 0.00 0.00 87 1016.6
20260506080524 12 153 6.4 14.5 0.00 0.00 0.00 88 1016.5
20260506073524 13 190 8.0 14.5 0.00 0.00 0.00 84 1016.3
20260506072524 13 211 4.8 11.3 0.00 0.00 0.00 84 1016.2
20260506071524 13 184 4.8 14.5 0.00 0.00 0.00 84 1016.2
20260506070537 12 190 6.4 14.5 0.00 0.00 0.00 84 1016.1
20260506061525 12 194 8.0 11.3 0.00 0.00 0.00 85 1016.0
20260506060525 12 156 6.4 11.3 0.00 0.00 0.00 88 1016.0
20260506050537 11 134 8.0 14.5 0.00 0.00 0.00 86 1015.5
20260506044537 11 110 8.0 11.3 0.00 0.00 0.00 83 1015.2
20260506043548 11 113 9.7 14.5 0.00 0.00 0.00 80 1015.2
20260506042525 11 110 8.0 11.3 0.00 0.00 0.00 87 1015.0
20260506041537 11 113 6.4 11.3 0.00 0.00 0.00 66 1014.9
20260506040524 12 225 0.0 3.2 0.00 0.00 0.00 62 1014.8
20260506035525 12 0.0 0.0 0.00 0.00 0.00 73 1014.7
20260506034524 10 0.0 0.0 0.00 0.00 0.00 82 1014.6
20260506033525 8 0.0 0.0 0.00 0.00 0.00 94 1014.6
20260506032524 7 0.0 0.0 0.00 0.00 0.00 99 1014.6
20260506031524 6 0.0 0.0 0.00 0.00 0.00 99 1014.5
20260506030525 4 0.0 0.0 0.00 0.00 0.00 98 1014.5
20260506025524 5 0.0 0.0 0.00 0.00 0.00 98 1014.4
20260506024525 4 0.0 0.0 0.00 0.00 0.00 98 1014.3
20260506023525 4 0.0 0.0 0.00 0.00 0.00 97 1014.3
20260506022524 3 0.0 0.0 0.00 0.00 0.00 96 1014.3
20260506021525 4 0.0 0.0 0.00 0.00 0.00 96 1014.3
20260506020537 4 0.0 0.0 0.00 0.00 0.00 96 1014.3
20260506015524 4 0.0 0.0 0.00 0.00 0.00 94 1014.3
20260506014525 5 0.0 0.0 0.00 0.00 0.00 94 1014.3
20260506013537 5 0.0 0.0 0.00 0.00 0.00 92 1014.3
20260506012537 5 0.0 0.0 0.00 0.00 0.00 91 1014.3
20260506011524 5 0.0 0.0 0.00 0.00 0.00 89 1014.3
20260506010524 6 0.0 0.0 0.00 0.00 0.00 86 1014.3
20260506005525 6 0.0 0.0 0.00 0.00 0.00 88 1014.3
20260506004525 5 0.0 0.0 0.00 0.00 0.00 88 1014.3
20260506003525 5 0.0 0.0 0.00 0.00 0.00 91 1014.4
20260506002525 6 0.0 0.0 0.00 0.00 0.00 89 1014.5
20260506001524 6 0.0 0.0 0.00 0.00 0.00 84 1014.5
20260506000537 7 0.0 0.0 0.00 0.00 0.00 79 1014.6
20260505235524 7 0.0 0.0 0.00 0.00 0.00 76 1014.6
20260505234536 7 0.0 0.0 0.00 0.00 0.00 77 1014.6
20260505233536 7 0.0 0.0 0.00 0.00 0.00 78 1014.7
20260505232525 7 0.0 0.0 0.00 0.00 0.00 81 1014.9
20260505231524 6 0.0 0.0 0.00 0.00 0.00 98 1015.0
20260505230525 5 0.0 0.0 0.00 0.00 0.00 99 1015.0
20260505225524 5 0.0 0.0 0.00 0.00 0.00 99 1015.0
20260505224545 6 0.0 0.0 0.00 0.00 0.00 99 1015.1
20260505223524 6 0.0 0.0 0.00 0.00 0.00 99 1015.3
20260505222545 6 0.0 0.0 0.00 0.00 0.00 98 1015.3
20260505221524 6 0.0 0.0 0.00 0.00 0.00 98 1015.4
20260505220537 6 0.0 0.0 0.00 0.00 0.00 98 1015.4
20260505215525 6 0.0 0.0 0.00 0.00 0.00 99 1015.5
20260505214524 6 0.0 0.0 0.00 0.00 0.00 98 1015.5
20260505213525 6 0.0 0.0 0.00 0.00 0.00 98 1015.6
20260505212524 6 0.0 0.0 0.00 0.00 0.00 97 1015.6
20260505211536 7 0.0 0.0 0.00 0.00 0.00 97 1015.7
20260505210524 7 0.0 0.0 0.00 0.00 0.00 96 1015.7
20260505205524 7 0.0 0.0 0.00 0.00 0.00 96 1015.8
20260505204544 7 0.0 0.0 0.00 0.00 0.00 96 1015.8
20260505203524 7 0.0 0.0 0.00 0.00 0.00 94 1015.8
20260505202524 8 0.0 0.0 0.00 0.00 0.00 93 1015.8
20260505201545 8 0.0 0.0 0.00 0.00 0.00 91 1015.8
20260505200537 9 0.0 0.0 0.00 0.00 0.00 89 1015.8
20260505195524 9 0.0 0.0 0.00 0.00 0.00 88 1015.8
20260505194524 9 225 0.0 3.2 0.00 0.00 0.00 90 1015.8
20260505193525 9 0.0 0.0 0.00 0.00 0.00 93 1015.8
20260505192524 9 225 0.0 3.2 0.00 0.00 0.00 95 1015.8
20260505191524 9 225 0.0 3.2 0.00 0.00 0.00 97 1015.8
20260505190525 9 225 0.0 3.2 0.00 0.00 0.00 96 1015.7
20260505185549 9 0.0 0.0 0.00 0.00 0.00 96 1015.7
20260505184524 9 0.0 0.0 0.00 0.00 0.00 95 1015.7
20260505183524 9 225 1.6 3.2 0.00 0.00 0.00 96 1015.7
20260505182525 9 225 0.0 3.2 0.00 0.00 0.00 96 1015.5
20260505181525 9 225 0.0 3.2 0.00 0.00 0.00 96 1015.5
20260505180556 10 0.0 0.0 0.00 0.00 0.00 95 1015.4
20260505175536 10 203 0.0 3.2 0.00 0.00 0.00 95 1015.4
20260505174525 10 203 1.6 3.2 0.00 0.00 0.00 95 1015.3
20260505173524 10 0.0 0.0 0.00 0.00 0.00 94 1015.3